Radiation Dose at Monitoring Post of Fukushima Daini Nuclear Power Station
Date,Time,MP-1(microSv/h),MP-2(microSv/h),MP-3(microSv/h),MP-4(microSv/h),MP-5(microSv/h),MP-6(microSv/h),MP-7(microSv/h),Wind Direction,Wind Velocity(m/s),Rain
2022/08/16,00:00,0.148,0.140,0.220,0.212,0.213,0.118,0.076,south-southwest,2.1,No
2022/08/16,00:10,0.150,0.139,0.217,0.210,0.214,0.119,0.076,southwest,2.0,No
2022/08/16,00:20,0.149,0.138,0.219,0.213,0.211,0.118,0.076,south,2.2,No
2022/08/16,00:30,0.148,0.140,0.220,0.213,0.212,0.118,0.076,south,1.4,No
2022/08/16,00:40,0.150,0.139,0.219,0.210,0.214,0.119,0.077,southwest,1.9,No
2022/08/16,00:50,0.150,0.140,0.219,0.212,0.214,0.118,0.076,southwest,1.5,No
2022/08/16,01:00,0.148,0.140,0.220,0.213,0.212,0.118,0.076,south-southwest,2.0,No
2022/08/16,01:10,0.150,0.139,0.217,0.211,0.215,0.119,0.077,south,2.0,No
2022/08/16,01:20,0.150,0.139,0.219,0.213,0.214,0.119,0.077,south-southeast,2.2,No
2022/08/16,01:30,0.149,0.140,0.220,0.214,0.211,0.118,0.077,south-southeast,3.1,No
2022/08/16,01:40,0.150,0.138,0.218,0.211,0.214,0.119,0.077,south-southeast,3.2,No
2022/08/16,01:50,0.150,0.140,0.218,0.212,0.215,0.120,0.077,south-southeast,2.8,No
2022/08/16,02:00,0.148,0.140,0.220,0.215,0.212,0.118,0.077,south,3.3,No
2022/08/16,02:10,0.149,0.138,0.217,0.211,0.213,0.119,0.078,south,2.7,No
2022/08/16,02:20,0.151,0.140,0.219,0.211,0.216,0.119,0.077,south,2.6,No
2022/08/16,02:30,0.149,0.140,0.220,0.213,0.212,0.118,0.077,south-southeast,2.9,No
2022/08/16,02:40,0.149,0.139,0.217,0.211,0.213,0.120,0.078,south,2.1,No
2022/08/16,02:50,0.150,0.141,0.219,0.213,0.216,0.120,0.077,south,3.1,No
2022/08/16,03:00,0.149,0.139,0.220,0.214,0.213,0.119,0.078,south,3.3,No
2022/08/16,03:10,0.150,0.139,0.219,0.212,0.214,0.119,0.077,south,3.1,No
2022/08/16,03:20,0.150,0.141,0.221,0.213,0.215,0.120,0.077,south,3.0,No
2022/08/16,03:30,0.149,0.139,0.218,0.213,0.215,0.119,0.077,south,4.2,No
2022/08/16,03:40,0.151,0.140,0.219,0.211,0.214,0.120,0.077,south,5.1,No
2022/08/16,03:50,0.150,0.141,0.220,0.214,0.215,0.119,0.078,south,4.8,No
2022/08/16,04:00,0.150,0.140,0.218,0.214,0.213,0.119,0.078,south,5.3,No
2022/08/16,04:10,0.150,0.141,0.220,0.212,0.213,0.120,0.077,south,5.8,No
2022/08/16,04:20,0.150,0.140,0.220,0.215,0.217,0.121,0.078,south,5.5,No
2022/08/16,04:30,0.149,0.140,0.219,0.212,0.214,0.120,0.079,south,4.3,No
2022/08/16,04:40,0.151,0.140,0.221,0.212,0.213,0.120,0.078,south,4.8,No
2022/08/16,04:50,0.150,0.139,0.220,0.215,0.217,0.121,0.078,south,3.5,No
2022/08/16,05:00,0.150,0.142,0.219,0.213,0.215,0.120,0.078,south-southwest,3.0,No
2022/08/16,05:10,0.151,0.141,0.221,0.213,0.213,0.121,0.078,south-southwest,2.6,No
2022/08/16,05:20,0.150,0.140,0.219,0.214,0.216,0.120,0.079,south-southwest,2.4,No
2022/08/16,05:30,0.151,0.142,0.221,0.212,0.215,0.121,0.078,south-southwest,2.5,No
2022/08/16,05:40,0.151,0.140,0.221,0.216,0.214,0.120,0.078,south-southwest,2.0,No
2022/08/16,05:50,0.150,0.141,0.219,0.214,0.216,0.120,0.079,south-southwest,2.1,No
2022/08/16,06:00,0.151,0.140,0.223,0.212,0.215,0.120,0.078,south,2.9,No
2022/08/16,06:10,0.151,0.140,0.220,0.215,0.214,0.120,0.077,south-southwest,2.4,No
2022/08/16,06:20,0.150,0.141,0.218,0.215,0.215,0.121,0.078,south-southwest,0.9,No
2022/08/16,06:30,0.151,0.140,0.221,0.213,0.217,0.120,0.078,south-southwest,1.1,No
2022/08/16,06:40,0.151,0.139,0.220,0.213,0.214,0.118,0.077,south-southeast,1.5,No
2022/08/16,06:50,0.150,0.142,0.218,0.215,0.212,0.121,0.078,south-southeast,1.2,No
2022/08/16,07:00,0.151,0.141,0.222,0.214,0.212,0.120,0.077,south-southwest,0.9,No
2022/08/16,07:10,0.151,0.141,0.222,0.212,0.216,0.119,0.079,south-southwest,1.8,No
2022/08/16,07:20,0.150,0.140,0.219,0.211,0.214,0.120,0.078,south-southwest,1.4,No
2022/08/16,07:30,0.150,0.141,0.218,0.212,0.213,0.120,0.078,southwest,1.7,No
2022/08/16,07:40,0.149,0.141,0.218,0.214,0.212,0.120,0.077,southwest,2.1,No
2022/08/16,07:50,0.153,0.140,0.220,0.215,0.212,0.119,0.078,south-southwest,1.1,No
2022/08/16,08:00,0.151,0.139,0.222,0.213,0.214,0.120,0.078,west-southwest,1.2,No
2022/08/16,08:10,0.150,0.139,0.221,0.212,0.216,0.121,0.078,west-southwest,1.2,No
2022/08/16,08:20,0.150,0.140,0.219,0.212,0.216,0.121,0.077,west-southwest,1.7,No
2022/08/16,08:30,0.148,0.141,0.219,0.211,0.213,0.120,0.078,-,CALM,No
2022/08/16,08:40,0.151,0.141,0.218,0.212,0.212,0.120,0.078,-,CALM,Yes
2022/08/16,08:50,0.152,0.142,0.219,0.211,0.213,0.121,0.077,northwest,1.0,No
2022/08/16,09:00,0.151,0.140,0.219,0.211,0.214,0.119,0.078,west-southwest,1.2,No
2022/08/16,09:10,0.150,0.140,0.221,0.213,0.215,0.120,0.077,west-southwest,0.8,No
2022/08/16,09:20,0.149,0.141,0.220,0.214,0.215,0.119,0.077,south-southwest,1.0,No
2022/08/16,09:30,0.150,0.141,0.220,0.213,0.214,0.120,0.077,south-southwest,1.1,No
2022/08/16,09:40,0.149,0.141,0.220,0.213,0.213,0.119,0.077,south-southwest,1.0,No
2022/08/16,09:50,0.149,0.140,0.220,0.213,0.214,0.121,0.077,south-southeast,1.2,No
2022/08/16,10:00,0.149,0.140,0.220,0.213,0.214,0.120,0.077,southeast,1.2,No
2022/08/16,10:10,0.149,0.139,0.220,0.214,0.214,0.120,0.077,south-southeast,2.1,Yes
2022/08/16,10:20,0.150,0.141,0.221,0.214,0.215,0.120,0.076,south,2.6,-
2022/08/16,10:30,0.150,0.141,0.222,0.215,0.216,0.120,0.077,south-southeast,2.7,-
2022/08/16,10:40,0.150,0.141,0.221,0.214,0.216,0.120,0.077,southeast,3.2,-
2022/08/16,10:50,0.150,0.141,0.222,0.215,0.216,0.121,0.078,south-southeast,4.7,-
2022/08/16,11:00,0.151,0.141,0.222,0.215,0.216,0.121,0.078,south-southeast,4.8,-
2022/08/16,11:10,0.150,0.141,0.222,0.215,0.216,0.121,0.077,south-southeast,5.2,-
2022/08/16,11:20,0.151,0.141,0.221,0.215,0.215,0.121,0.078,south,5.1,-
2022/08/16,11:30,0.151,0.142,0.222,0.217,0.216,0.120,0.078,south-southeast,5.1,-
2022/08/16,11:40,0.151,0.140,0.221,0.215,0.214,0.120,0.078,south-southeast,5.2,-
2022/08/16,11:50,0.150,0.141,0.220,0.215,0.216,0.119,0.076,south-southeast,5.4,-
2022/08/16,12:00,0.149,0.141,0.221,0.215,0.214,0.120,0.077,south-southeast,5.5,-
2022/08/16,12:10,0.151,0.140,0.220,0.213,0.214,0.119,0.077,south-southeast,5.0,-
2022/08/16,12:20,0.150,0.140,0.219,0.213,0.213,0.119,0.077,south,4.3,-
2022/08/16,12:30,0.149,0.139,0.218,0.212,0.211,0.118,0.077,south-southeast,3.2,-
2022/08/16,12:40,0.150,0.140,0.220,0.213,0.213,0.119,0.077,south,3.6,-
2022/08/16,12:50,0.151,0.141,0.220,0.212,0.214,0.120,0.077,south,4.0,-
2022/08/16,13:00,0.151,0.141,0.220,0.215,0.214,0.120,0.077,south,4.3,-
2022/08/16,13:10,0.150,0.141,0.219,0.213,0.215,0.119,0.077,south,3.6,-
2022/08/16,13:20,0.150,0.141,0.220,0.213,0.214,0.119,0.076,south,3.9,-
2022/08/16,13:30,0.149,0.141,0.219,0.214,0.214,0.119,0.077,south,4.3,-
2022/08/16,13:40,0.149,0.139,0.219,0.213,0.213,0.120,0.077,south,4.6,-
2022/08/16,13:50,0.150,0.140,0.219,0.213,0.214,0.119,0.077,south,3.9,-
2022/08/16,14:00,0.149,0.139,0.219,0.212,0.213,0.120,0.078,south-southwest,3.5,-
2022/08/16,14:10,0.148,0.139,0.220,0.212,0.213,0.120,0.078,south,3.6,No
2022/08/16,14:20,0.150,0.139,0.220,0.212,0.213,0.119,0.078,south,2.8,No
2022/08/16,14:30,0.150,0.140,0.219,0.213,0.214,0.120,0.078,south,3.0,No
2022/08/16,14:40,0.150,0.140,0.220,0.211,0.213,0.120,0.077,south-southwest,2.8,No
2022/08/16,14:50,0.150,0.140,0.220,0.213,0.215,0.120,0.077,southwest,2.1,No
2022/08/16,15:00,0.150,0.140,0.220,0.213,0.214,0.120,0.077,southwest,2.5,No
2022/08/16,15:10,0.150,0.140,0.219,0.214,0.214,0.120,0.077,west-southwest,2.9,No
2022/08/16,15:20,0.150,0.140,0.221,0.213,0.215,0.120,0.078,west-southwest,1.8,No
2022/08/16,15:30,0.150,0.140,0.222,0.214,0.215,0.119,0.078,west-southwest,1.1,No
2022/08/16,15:40,0.149,0.139,0.221,0.212,0.214,0.119,0.078,west-southwest,1.4,No
2022/08/16,15:50,0.149,0.141,0.220,0.213,0.214,0.120,0.078,west,1.1,No
2022/08/16,16:00,0.150,0.140,0.222,0.213,0.214,0.120,0.077,west-northwest,1.9,No
2022/08/16,16:10,0.149,0.140,0.219,0.212,0.211,0.120,0.077,west-northwest,4.9,Yes
2022/08/16,16:20,0.151,0.141,0.220,0.211,0.212,0.120,0.078,west-northwest,3.3,Yes
2022/08/16,16:30,0.150,0.141,0.220,0.213,0.214,0.120,0.077,west,3.2,No
2022/08/16,16:40,0.151,0.140,0.220,0.212,0.213,0.121,0.077,west-northwest,2.3,No
2022/08/16,16:50,0.150,0.140,0.220,0.211,0.213,0.119,0.076,west-northwest,5.9,No
2022/08/16,17:00,0.150,0.140,0.219,0.212,0.213,0.120,0.077,west-northwest,3.8,No
2022/08/16,17:10,0.149,0.140,0.221,0.213,0.214,0.119,0.076,west,3.1,No
2022/08/16,17:20,0.150,0.139,0.219,0.213,0.213,0.119,0.077,west,3.4,No
2022/08/16,17:30,0.149,0.140,0.220,0.212,0.212,0.119,0.076,west,10.6,No
2022/08/16,17:40,0.149,0.140,0.219,0.211,0.213,0.119,0.077,west,10.4,No
2022/08/16,17:50,0.149,0.140,0.219,0.212,0.213,0.119,0.076,west,10.7,No
2022/08/16,18:00,0.151,0.139,0.220,0.212,0.213,0.119,0.076,west,8.1,No
2022/08/16,18:10,0.150,0.138,0.218,0.211,0.212,0.120,0.077,west,9.5,No
2022/08/16,18:20,0.149,0.139,0.222,0.213,0.212,0.120,0.076,west,8.2,No
2022/08/16,18:30,0.150,0.139,0.223,0.216,0.213,0.120,0.076,west,9.8,No
2022/08/16,18:40,0.152,0.140,0.221,0.215,0.212,0.121,0.077,west,12.6,No
2022/08/16,18:50,0.152,0.141,0.220,0.214,0.212,0.120,0.077,west,13.7,No
2022/08/16,19:00,0.151,0.141,0.219,0.212,0.215,0.120,0.076,west,14.7,No
2022/08/16,19:10,0.150,0.141,0.218,0.212,0.215,0.120,0.076,west,13.1,No
2022/08/16,19:20,0.149,0.139,0.222,0.211,0.214,0.119,0.076,west,10.1,No
2022/08/16,19:30,0.148,0.139,0.222,0.214,0.212,0.119,0.076,west-southwest,9.0,No
2022/08/16,19:40,0.149,0.139,0.221,0.214,0.212,0.119,0.076,southwest,3.7,No
2022/08/16,19:50,0.149,0.139,0.220,0.214,0.211,0.120,0.077,southwest,4.7,No
2022/08/16,20:00,0.151,0.142,0.219,0.214,0.217,0.120,0.077,southwest,3.5,No
2022/08/16,20:10,0.151,0.142,0.220,0.212,0.216,0.120,0.076,southwest,2.6,No
2022/08/16,20:20,0.151,0.140,0.222,0.213,0.214,0.119,0.076,west,4.2,No
2022/08/16,20:30,0.149,0.140,0.222,0.215,0.213,0.120,0.077,west,6.0,No
2022/08/16,20:40,0.150,0.139,0.220,0.214,0.212,0.119,0.077,west,6.8,No
2022/08/16,20:50,0.150,0.138,0.219,0.213,0.215,0.120,0.076,west,7.8,No
2022/08/16,21:00,0.152,0.140,0.219,0.212,0.216,0.119,0.077,west,6.4,No
2022/08/16,21:10,0.150,0.140,0.222,0.211,0.213,0.119,0.076,west,6.2,No
2022/08/16,21:20,0.150,0.141,0.222,0.215,0.213,0.120,0.077,west,6.4,No
2022/08/16,21:30,0.148,0.139,0.221,0.214,0.213,0.120,0.077,west-northwest,5.3,No
2022/08/16,21:40,0.151,0.140,0.219,0.213,0.214,0.120,0.076,west,3.9,No
2022/08/16,21:50,0.152,0.140,0.219,0.213,0.216,0.119,0.076,west-northwest,2.0,No
2022/08/16,22:00,0.151,0.140,0.222,0.212,0.214,0.119,0.077,west-northwest,3.1,No
2022/08/16,22:10,0.149,0.138,0.222,0.213,0.214,0.120,0.077,west,4.8,No
2022/08/16,22:20,0.150,0.140,0.221,0.215,0.212,0.119,0.076,west,6.3,No
2022/08/16,22:30,0.151,0.141,0.221,0.214,0.211,0.118,0.076,west,6.5,No
2022/08/16,22:40,0.151,0.141,0.219,0.213,0.214,0.121,0.076,west,6.4,No
2022/08/16,22:50,0.150,0.139,0.222,0.212,0.216,0.120,0.076,west-northwest,5.8,No
2022/08/16,23:00,0.149,0.138,0.224,0.211,0.214,0.119,0.076,west,4.8,No
2022/08/16,23:10,0.150,0.140,0.221,0.213,0.213,0.119,0.076,west,4.2,No
2022/08/16,23:20,0.152,0.141,0.220,0.215,0.212,0.120,0.077,west-northwest,2.3,Yes
2022/08/16,23:30,0.151,0.140,0.218,0.214,0.211,0.120,0.076,west-northwest,3.9,Yes
2022/08/16,23:40,0.150,0.140,0.220,0.215,0.211,0.119,0.076,west-northwest,5.9,No
2022/08/16,23:50,0.149,0.139,0.222,0.213,0.214,0.120,0.075,west-northwest,7.5,No
